Location: Chassagnes
(44.4047°N, 4.1657°E)
Time: 12:50:54
(UTC+00:00)

FALCON 9 DEB - Pass Details

Date: 27 October 2020
Orbit: 379 x 394 km, 53.0° (Epoch: 23 November)

Event Time Altitude Azimuth Distance (km) Brightness Sun altitude
Rises 18:17:55 0° 260° (W) 2,292 8.4 -18.2°
Reaches altitude 10° 18:20:07 10° 270° (W) 1,434 7.0 -18.6°
Maximum altitude 18:23:04 33° 337° (NNW) 693 4.3 -19.1°
Enters shadow 18:23:43 29° 4° (N) 748 4.2 -19.2°
